WXM80 ListenWXM80 Stop

You find our weather info also at:

UK Metoffice

WeatherCloud

Weather Underground

Northeastern Weather Network

AWEKAS

Citizen Weather Observer Program (CWOP)

HAMweather, WeatherForYou, PWS Weather


Weather Underground History page Text

Daily Summary for January 21, 2018 Units:  Metric    English   Both
« Previous Day
Next Day »
Daily Weekly Monthly Yearly Custom
  High: Low: Average:
Temperature: -17.8 °C 1.4 °C 4.8 °C
Dew Point: -17.8 °C -1.8 °C -0.1 °C
Humidity: Humidity % 57 % 71 %
Wind Speed: 0 km/h 0 km/h 1.1 km/h
Wind Gust: 0 km/h - -
Wind:- - WSW
Pressure: 0 hPa 1008.7 hPa -
Precipitation: 0 mm    
Historical Graphs
 
 
Tabular Data for January 21, 2018
Time Temperature Dew Point Pressure Wind Wind Speed Wind Gust Humidity Rainfall Rate (Hourly)
-17.8 °C -17.8 °C 0 hPa Calm     Humidity % 0 mm
00:02 4.2 °C -1.2 °C 1008.7 hPa SW 1.3 km/h 5.6 km/h 68 % 0 mm
00:07 4.2 °C -1.2 °C 1008.7 hPa SW 2.1 km/h 5.6 km/h 68 % 0 mm
00:12 4.2 °C -1.2 °C 1009 hPa SSW 2.4 km/h 5.6 km/h 68 % 0 mm
00:17 4.1 °C -1.1 °C 1008.7 hPa SSW 1.8 km/h 5.6 km/h 69 % 0 mm
00:23 4 °C -1.2 °C 1009 hPa SSW 2.4 km/h 5.6 km/h 69 % 0 mm
00:28 3.8 °C -1.3 °C 1009 hPa SSW 4 km/h 5.6 km/h 69 % 0 mm
00:33 3.7 °C -1.2 °C 1008.7 hPa SSW 3.2 km/h 5.6 km/h 70 % 0 mm
00:38 3.7 °C -1.3 °C 1009 hPa SSW 3.4 km/h 5.6 km/h 70 % 0 mm
00:43 3.6 °C -1.4 °C 1009 hPa SSW 4.3 km/h 5.6 km/h 70 % 0 mm
00:48 3.4 °C -1.5 °C 1009 hPa SSW 3.4 km/h 5.6 km/h 70 % 0 mm
00:53 3.3 °C -1.4 °C 1009 hPa SSW 1.1 km/h 3.2 km/h 71 % 0 mm
01:03 3.2 °C -1.6 °C 1009 hPa SSW 1.8 km/h 3.7 km/h 71 % 0 mm
01:08 3.2 °C -1.4 °C 1009 hPa SSW 3.1 km/h 3.7 km/h 72 % 0 mm
01:13 3.2 °C -1.4 °C 1009 hPa SW 1.9 km/h 5.6 km/h 72 % 0 mm
01:23 3.2 °C -1.2 °C 1008.7 hPa SW 3.4 km/h 5.6 km/h 73 % 0 mm
01:28 3.1 °C -1.3 °C 1009 hPa SSW 3.7 km/h 5.6 km/h 73 % 0 mm
01:33 3.1 °C -1.3 °C 1009 hPa SW 3.5 km/h 5.6 km/h 73 % 0 mm
01:38 3.1 °C -1.3 °C 1009 hPa SW 2.7 km/h 5.6 km/h 73 % 0 mm
01:43 3.1 °C -1.3 °C 1009.4 hPa SW 2.6 km/h 3.7 km/h 73 % 0 mm
01:48 3 °C -1.4 °C 1009.4 hPa SW 2.7 km/h 5.6 km/h 73 % 0 mm
01:53 3 °C -1.2 °C 1009.4 hPa SW 3.1 km/h 5.6 km/h 74 % 0 mm
01:58 3 °C -1.2 °C 1009.4 hPa SSW 4 km/h 5.6 km/h 74 % 0 mm
02:03 3 °C -1.2 °C 1009.4 hPa SW 3.5 km/h 5.6 km/h 74 % 0 mm
02:08 3 °C -1.2 °C 1009.4 hPa SSW 4 km/h 5.6 km/h 74 % 0 mm
02:13 2.9 °C -1.2 °C 1009.7 hPa SSW 4.2 km/h 5.6 km/h 74 % 0 mm
02:18 2.9 °C -1.2 °C 1009.7 hPa SW 3.1 km/h 5.6 km/h 74 % 0 mm
02:24 2.9 °C -1.2 °C 1009.7 hPa SW 1 km/h 3.7 km/h 74 % 0 mm
02:29 2.9 °C -1.2 °C 1009.7 hPa SW 2.1 km/h 5.6 km/h 74 % 0 mm
02:34 2.9 °C -1.1 °C 1010 hPa SW 1.4 km/h 5.6 km/h 75 % 0 mm
02:39 2.8 °C -1.3 °C 1009.7 hPa SW 0.5 km/h 1.9 km/h 74 % 0 mm
02:44 2.8 °C -1.4 °C 1009.7 hPa SW 0.8 km/h 3.2 km/h 74 % 0 mm
02:49 2.7 °C -1.4 °C 1009.7 hPa SW 1 km/h 1.9 km/h 74 % 0 mm
02:54 2.7 °C -1.3 °C 1009.7 hPa SW 0.3 km/h 3.7 km/h 75 % 0 mm
02:59 2.6 °C -1.4 °C 1009.7 hPa SW 0.5 km/h 1.9 km/h 75 % 0 mm
03:04 2.4 °C -1.6 °C 1009.7 hPa Calm     75 % 0 mm
03:09 2.4 °C -1.6 °C 1009.7 hPa SW 0.3 km/h 1.9 km/h 75 % 0 mm
03:10 2.3 °C -1.7 °C 1009.7 hPa SW 0.5 km/h 1.9 km/h 75 % 0 mm
03:20 2.2 °C -1.6 °C 1009.4 hPa Calm     76 % 0 mm
03:25 2.1 °C -1.7 °C 1009.7 hPa Calm   3.2 km/h 76 % 0 mm
03:30 2 °C -1.8 °C 1009.7 hPa Calm   3.2 km/h 76 % 0 mm
03:35 1.9 °C -1.7 °C 1009.4 hPa SW 1.6 km/h 3.2 km/h 77 % 0 mm
03:40 1.9 °C -1.6 °C 1009.7 hPa SW 1.6 km/h 6.4 km/h 78 % 0 mm
03:45 1.8 °C -1.6 °C 1009.7 hPa SW 1.6 km/h 4.8 km/h 78 % 0 mm
03:50 1.8 °C -1.7 °C 1009.7 hPa SSW 1.6 km/h 4.8 km/h 78 % 0 mm
03:55 1.7 °C -1.6 °C 1009.7 hPa Calm   3.2 km/h 79 % 0 mm
04:06 1.7 °C -1.3 °C 1009.7 hPa Calm   11.3 km/h 80 % 0 mm
04:11 1.8 °C -1.1 °C 1009.7 hPa Calm   8 km/h 81 % 0 mm
04:16 1.9 °C -1.2 °C 1009.7 hPa SW 3.2 km/h 6.4 km/h 80 % 0 mm
04:21 2 °C -1.1 °C 1010 hPa SSW 2.1 km/h 3.7 km/h 80 % 0 mm
04:26 2.1 °C -1.1 °C 1010 hPa SSW 1.6 km/h 4.8 km/h 80 % 0 mm
04:31 2.1 °C -1.1 °C 1010 hPa SSW 3.2 km/h 6.4 km/h 80 % 0 mm
04:36 2.1 °C -1 °C 1010 hPa SSW 1.6 km/h 4.8 km/h 80 % 0 mm
04:41 2.2 °C -1.1 °C 1010 hPa SSW 2.4 km/h 3.7 km/h 79 % 0 mm
04:46 2.2 °C -1.1 °C 1010 hPa Calm   3.2 km/h 79 % 0 mm
04:51 2.2 °C -1.1 °C 1010.4 hPa SSW 3.2 km/h 4.8 km/h 79 % 0 mm
04:55 2.2 °C -1.1 °C 1010.4 hPa SW 0.3 km/h 1.6 km/h 79 % 0 mm
05:01 2.2 °C -1.1 °C 1010.4 hPa West 3.2 km/h 5.6 km/h 79 % 0 mm
05:06 2.3 °C -1 °C 1010.4 hPa WNW 3.7 km/h 5.6 km/h 79 % 0 mm
05:11 2.3 °C -1 °C 1010.4 hPa WSW 2.3 km/h 5.6 km/h 79 % 0 mm
05:16 2.3 °C -0.9 °C 1010.4 hPa WSW 3.4 km/h 6.4 km/h 79 % 0 mm
05:21 2.4 °C -0.8 °C 1010.4 hPa WSW 0.2 km/h 3.7 km/h 79 % 0 mm
05:26 2.5 °C -0.8 °C 1010.7 hPa WSW 0.6 km/h 3.7 km/h 79 % 0 mm
05:31 2.6 °C -0.7 °C 1010.4 hPa Calm   1.9 km/h 79 % 0 mm
05:36 2.6 °C -0.7 °C 1010.7 hPa Calm     79 % 0 mm
05:41 2.6 °C -0.8 °C 1010.7 hPa West 1.3 km/h 5.6 km/h 78 % 0 mm
05:46 2.6 °C -0.8 °C 1010.7 hPa Calm     78 % 0 mm
05:51 2.6 °C -0.8 °C 1011.1 hPa WNW 2.4 km/h 5.6 km/h 78 % 0 mm
05:56 2.6 °C -0.9 °C 1011.1 hPa West 2.6 km/h 3.7 km/h 78 % 0 mm
06:01 2.6 °C -0.9 °C 1011.4 hPa West 0.8 km/h 3.7 km/h 78 % 0 mm
06:06 2.5 °C -0.9 °C 1011.1 hPa WSW 2.7 km/h 3.7 km/h 78 % 0 mm
06:11 2.4 °C -1 °C 1011.4 hPa SW 2.6 km/h 3.7 km/h 78 % 0 mm
06:16 2.3 °C -1.1 °C 1011.4 hPa SW 1 km/h 1.9 km/h 78 % 0 mm
06:21 2.3 °C -1.2 °C 1011.4 hPa SW 1.1 km/h 3.7 km/h 78 % 0 mm
06:26 2.2 °C -1.1 °C 1011.7 hPa West 3.1 km/h 5.6 km/h 79 % 0 mm
06:31 2.2 °C -1.1 °C 1011.4 hPa West 1 km/h 1.9 km/h 79 % 0 mm
06:36 2.1 °C -1.1 °C 1011.7 hPa West 1.8 km/h 4.8 km/h 80 % 0 mm
06:41 2 °C -1.1 °C 1011.7 hPa SW 0.3 km/h 1.9 km/h 80 % 0 mm
06:46 1.9 °C -1.2 °C 1012.1 hPa SW 0.6 km/h 3.2 km/h 80 % 0 mm
06:52 1.8 °C -1.1 °C 1012.1 hPa SW 1.8 km/h 3.7 km/h 81 % 0 mm
06:57 1.8 °C -1.1 °C 1012.1 hPa SW 1.3 km/h 5.6 km/h 81 % 0 mm
07:02 1.7 °C -1.2 °C 1012.1 hPa SW 1.6 km/h 5.6 km/h 81 % 0 mm
07:07 1.6 °C -1.3 °C 1012.1 hPa SW 1.3 km/h 3.7 km/h 81 % 0 mm
07:12 1.6 °C -1.2 °C 1012.4 hPa SW 1.8 km/h 3.7 km/h 82 % 0 mm
07:17 1.5 °C -1.2 °C 1012.4 hPa SW 3.5 km/h 5.6 km/h 82 % 0 mm
07:22 1.5 °C -1.2 °C 1012.4 hPa SW 2.9 km/h 5.6 km/h 82 % 0 mm
07:27 1.4 °C -1.1 °C 1012.4 hPa SW 2.7 km/h 5.6 km/h 83 % 0 mm
07:32 1.4 °C -1.1 °C 1012.4 hPa SW 1.4 km/h 3.7 km/h 83 % 0 mm
07:37 1.4 °C -1.1 °C 1012.4 hPa SW 0.5 km/h 1.9 km/h 83 % 0 mm
07:42 1.5 °C -1.1 °C 1012.8 hPa SW 1.8 km/h 5.6 km/h 83 % 0 mm
07:47 1.6 °C -0.8 °C 1012.8 hPa SW 3.5 km/h 5.6 km/h 84 % 0 mm
07:52 1.7 °C -0.7 °C 1012.8 hPa SW 2.4 km/h 4.8 km/h 84 % 0 mm
07:57 1.8 °C -0.7 °C 1013.1 hPa Calm   1.9 km/h 83 % 0 mm
08:02 1.9 °C -0.7 °C 1012.8 hPa WSW 0.8 km/h 3.7 km/h 83 % 0 mm
08:07 2.1 °C -0.5 °C 1012.8 hPa SW 1.3 km/h 4.8 km/h 83 % 0 mm
08:12 2.3 °C -0.3 °C 1012.8 hPa WSW 2.3 km/h 5.6 km/h 83 % 0 mm
08:17 2.4 °C -0.3 °C 1013.1 hPa Calm     82 % 0 mm
08:22 2.7 °C -0.1 °C 1013.1 hPa Calm   1.9 km/h 82 % 0 mm
08:27 2.8 °C -0.1 °C 1013.1 hPa Calm     81 % 0 mm
08:32 3.1 °C -0.1 °C 1013.4 hPa Calm   1.9 km/h 80 % 0 mm
08:37 3.3 °C 0 °C 1013.1 hPa Calm   5.6 km/h 79 % 0 mm
08:42 3.5 °C 0 °C 1013.1 hPa Calm     78 % 0 mm
08:48 3.7 °C 0.2 °C 1013.4 hPa Calm     78 % 0 mm
08:53 3.8 °C 0.7 °C 1013.4 hPa WNW 0.8 km/h 1.6 km/h 80 % 0 mm
08:58 4 °C 0.7 °C 1013.4 hPa NNW 1.9 km/h 3.7 km/h 79 % 0 mm
09:03 4.2 °C 0.7 °C 1013.4 hPa NNW 1.3 km/h 3.7 km/h 78 % 0 mm
09:08 4.3 °C 0.8 °C 1013.4 hPa NE 3.4 km/h 7.4 km/h 78 % 0 mm
09:13 4.5 °C 1 °C 1013.4 hPa NNE 2.9 km/h 5.6 km/h 78 % 0 mm
09:18 4.4 °C 0.9 °C 1013.8 hPa Calm     78 % 0 mm
09:23 4.5 °C 1.2 °C 1013.8 hPa Calm     79 % 0 mm
09:28 4.6 °C 1.4 °C 1014.1 hPa NNE 0.3 km/h 1.9 km/h 80 % 0 mm
09:33 4.7 °C 1.2 °C 1014.1 hPa North 2.6 km/h 5.6 km/h 78 % 0 mm
09:38 4.8 °C 1.1 °C 1013.8 hPa Calm     77 % 0 mm
09:43 4.9 °C 0.9 °C 1013.8 hPa NW 2.4 km/h 5.6 km/h 75 % 0 mm
09:48 5.1 °C 0.8 °C 1013.8 hPa NW 1.4 km/h 3.7 km/h 74 % 0 mm
09:53 5.2 °C 0.8 °C 1013.8 hPa WNW 1.8 km/h 6.4 km/h 73 % 0 mm
09:58 5.4 °C 0.8 °C 1013.8 hPa West 1.4 km/h 4.8 km/h 72 % 0 mm
10:03 5.7 °C 0.9 °C 1013.8 hPa Calm     71 % 0 mm
10:08 6.1 °C 0.8 °C 1013.8 hPa Calm   1.9 km/h 69 % 0 mm
10:13 6.5 °C 1 °C 1014.1 hPa WNW 0.3 km/h 3.7 km/h 68 % 0 mm
10:18 6.9 °C 0.9 °C 1014.1 hPa NNE 1.6 km/h 3.7 km/h 66 % 0 mm
10:23 7.4 °C 1 °C 1014.1 hPa NNW 1.8 km/h 6.4 km/h 64 % 0 mm
10:28 7.7 °C 1.3 °C 1014.1 hPa NNE 1.4 km/h 3.7 km/h 64 % 0 mm
10:33 7.9 °C 1.1 °C 1014.1 hPa North 4 km/h 5.6 km/h 62 % 0 mm
10:38 8.1 °C 1 °C 1014.1 hPa NNW 1.1 km/h 5.6 km/h 61 % 0 mm
10:44 8.1 °C 0.8 °C 1014.1 hPa NNW 3.2 km/h 5.6 km/h 60 % 0 mm
10:49 8.1 °C 0.8 °C 1014.1 hPa NNW 2.9 km/h 5.6 km/h 60 % 0 mm
10:54 8.1 °C 0.8 °C 1014.1 hPa North 3.9 km/h 7.4 km/h 60 % 0 mm
10:59 8 °C 0.7 °C 1014.1 hPa North 1 km/h 5.6 km/h 60 % 0 mm
11:04 7.9 °C 0.7 °C 1014.1 hPa North 1 km/h 3.7 km/h 60 % 0 mm
11:09 7.8 °C 0.6 °C 1013.8 hPa North 1.1 km/h 5.6 km/h 60 % 0 mm
11:14 7.8 °C 0.7 °C 1013.8 hPa Calm   3.7 km/h 61 % 0 mm
11:19 7.6 °C 0.6 °C 1013.8 hPa North 4.2 km/h 5.6 km/h 61 % 0 mm
11:24 7.6 °C 0.7 °C 1013.4 hPa NNW 2.4 km/h 5.6 km/h 62 % 0 mm
11:29 7.6 °C 0.7 °C 1013.4 hPa NNW 0.8 km/h 1.9 km/h 62 % 0 mm
11:34 7.6 °C 0.7 °C 1013.4 hPa North 1 km/h 3.7 km/h 62 % 0 mm
11:39 7.5 °C 0.7 °C 1013.4 hPa North 0.8 km/h 3.7 km/h 62 % 0 mm
11:44 7.5 °C 0.7 °C 1013.4 hPa NNE 0.6 km/h 3.7 km/h 62 % 0 mm
11:49 7.4 °C 0.8 °C 1013.4 hPa NNE 1.4 km/h 3.7 km/h 63 % 0 mm
11:54 7.4 °C 0.6 °C 1013.4 hPa NNE 0.2 km/h 1.9 km/h 62 % 0 mm
11:59 7.4 °C 0.4 °C 1013.4 hPa NNE 2.4 km/h 3.7 km/h 61 % 0 mm
12:04 7.4 °C 0.6 °C 1013.1 hPa NNW 1.9 km/h 3.7 km/h 62 % 0 mm
12:09 7.4 °C 0.6 °C 1013.1 hPa North 1.4 km/h 3.2 km/h 62 % 0 mm
12:14 7.4 °C 0.6 °C 1013.1 hPa NNW 1.8 km/h 3.7 km/h 62 % 0 mm
12:19 7.4 °C 0.6 °C 1013.1 hPa NW 2.1 km/h 5.6 km/h 62 % 0 mm
12:24 7.4 °C 0.3 °C 1013.1 hPa NW 1.4 km/h 5.6 km/h 61 % 0 mm
12:29 7.4 °C 0.3 °C 1013.1 hPa NW 0.2 km/h 1.9 km/h 61 % 0 mm
12:34 7.4 °C 0.6 °C 1012.8 hPa Calm   3.7 km/h 62 % 0 mm
12:39 7.4 °C 0.8 °C 1012.8 hPa NNW 1.9 km/h 4.8 km/h 63 % 0 mm
12:44 7.5 °C 0.7 °C 1012.8 hPa NNW 0.2 km/h 3.7 km/h 62 % 0 mm
12:49 7.6 °C 0.9 °C 1012.8 hPa NNW 0.5 km/h 1.9 km/h 63 % 0 mm
12:55 7.7 °C 0.8 °C 1012.8 hPa Calm   5.6 km/h 62 % 0 mm
13:00 7.7 °C 0.7 °C 1012.4 hPa Calm     61 % 0 mm
13:05 7.8 °C 0.9 °C 1012.4 hPa NNW 0.3 km/h 3.7 km/h 62 % 0 mm
13:10 7.8 °C 1 °C 1012.4 hPa North 1 km/h 5.6 km/h 62 % 0 mm
13:15 7.9 °C 0.8 °C 1012.4 hPa NNW 1.9 km/h 5.6 km/h 61 % 0 mm
13:20 7.9 °C 0.9 °C 1012.4 hPa Calm   1.9 km/h 61 % 0 mm
13:25 8 °C 0.9 °C 1012.4 hPa WNW 2.3 km/h 5.6 km/h 61 % 0 mm
13:30 8.1 °C 0.8 °C 1012.4 hPa WNW 0.5 km/h 1.9 km/h 60 % 0 mm
13:35 8.1 °C 1.1 °C 1012.4 hPa WNW 0.3 km/h 1.6 km/h 61 % 0 mm
13:40 8.2 °C 0.8 °C 1012.4 hPa WNW 0.3 km/h 1.9 km/h 60 % 0 mm
13:45 8.2 °C 1.1 °C 1012.4 hPa Calm   1.9 km/h 61 % 0 mm
13:50 8.3 °C 1 °C 1012.4 hPa WNW 2.6 km/h 5.6 km/h 60 % 0 mm
13:55 8.4 °C 0.6 °C 1012.4 hPa West 1.9 km/h 3.7 km/h 58 % 0 mm
14:00 8.4 °C 0.6 °C 1012.4 hPa SW 3.2 km/h 5.6 km/h 58 % 0 mm
14:05 8.4 °C 0.7 °C 1012.4 hPa West 0.2 km/h 3.7 km/h 58 % 0 mm
14:10 8.5 °C 0.9 °C 1012.4 hPa SW 1.9 km/h 5.6 km/h 59 % 0 mm
14:15 8.6 °C 0.8 °C 1012.4 hPa WNW 2.1 km/h 5.6 km/h 58 % 0 mm
14:20 8.6 °C 0.5 °C 1012.4 hPa WNW 4 km/h 6.4 km/h 57 % 0 mm
14:25 8.6 °C 0.5 °C 1012.4 hPa WNW 3.5 km/h 5.6 km/h 57 % 0 mm
14:30 8.6 °C 0.5 °C 1012.4 hPa West 0.5 km/h 3.7 km/h 57 % 0 mm
14:35 8.6 °C 0.5 °C 1012.4 hPa WSW 3.9 km/h 4.8 km/h 57 % 0 mm
14:40 8.4 °C 0.7 °C 1012.4 hPa WSW 2.1 km/h 3.2 km/h 58 % 0 mm
14:45 8.3 °C 0.6 °C 1012.4 hPa WSW 0.2 km/h 3.2 km/h 58 % 0 mm
14:51 8.3 °C 0.6 °C 1012.4 hPa Calm   1.6 km/h 58 % 0 mm
14:56 8.3 °C 0.5 °C 1012.4 hPa SW 1.6 km/h 4.8 km/h 58 % 0 mm
15:01 8.2 °C 0.7 °C 1012.4 hPa West 3.5 km/h 5.6 km/h 59 % 0 mm
15:06 8.2 °C 0.6 °C 1012.4 hPa SW 0.2 km/h 5.6 km/h 59 % 0 mm
15:11 8.2 °C 0.6 °C 1012.4 hPa WSW 3.1 km/h 5.6 km/h 59 % 0 mm
15:16 8.1 °C 0.6 °C 1012.4 hPa Calm     59 % 0 mm
15:26 8.1 °C 0.5 °C 1012.4 hPa WSW 0.3 km/h 1.9 km/h 59 % 0 mm
15:31 8 °C 0.4 °C 1012.4 hPa WSW 1.6 km/h 5.6 km/h 59 % 0 mm
15:36 8 °C 0.7 °C 1012.4 hPa SW 4.3 km/h 5.6 km/h 60 % 0 mm
15:41 7.9 °C 0.7 °C 1012.4 hPa SW 0.3 km/h 5.6 km/h 60 % 0 mm
15:46 7.9 °C 0.7 °C 1012.8 hPa SW 2.4 km/h 5.6 km/h 60 % 0 mm
15:51 7.9 °C 0.7 °C 1012.8 hPa SW 4.5 km/h 5.6 km/h 60 % 0 mm
15:56 7.9 °C 0.6 °C 1012.8 hPa SW 3.2 km/h 5.6 km/h 60 % 0 mm
16:01 7.8 °C 0.6 °C 1012.8 hPa SW 0.2 km/h 1.9 km/h 60 % 0 mm
16:06 7.8 °C 0.8 °C 1012.8 hPa SW 1 km/h 3.7 km/h 61 % 0 mm
16:11 7.8 °C 0.7 °C 1012.8 hPa West 0.3 km/h 1.6 km/h 61 % 0 mm
16:16 7.7 °C 0.7 °C 1012.8 hPa Calm     61 % 0 mm
16:21 7.7 °C 0.7 °C 1012.8 hPa Calm     61 % 0 mm
16:31 7.6 °C 0.7 °C 1012.8 hPa Calm     62 % 0 mm
16:36 7.4 °C 0.6 °C 1012.8 hPa Calm     62 % 0 mm
16:41 7.3 °C 0.5 °C 1012.8 hPa Calm     62 % 0 mm
16:46 7.2 °C 0.4 °C 1012.8 hPa Calm     62 % 0 mm
16:51 7.1 °C 0.5 °C 1012.8 hPa Calm     63 % 0 mm
16:57 6.8 °C 0.5 °C 1012.8 hPa Calm     64 % 0 mm
17:07 6.6 °C 0.4 °C 1012.8 hPa West 0.2 km/h 1.6 km/h 65 % 0 mm
17:12 6.4 °C 0.6 °C 1012.8 hPa West 2.3 km/h 3.7 km/h 66 % 0 mm
17:17 6.3 °C 0.4 °C 1013.1 hPa Calm     66 % 0 mm
17:22 6.2 °C 0.3 °C 1013.1 hPa Calm     66 % 0 mm
17:27 6.1 °C 0.2 °C 1013.1 hPa Calm     66 % 0 mm
17:37 5.8 °C 0.2 °C 1013.1 hPa Calm     67 % 0 mm
17:42 5.7 °C 0.1 °C 1013.1 hPa Calm     67 % 0 mm
17:52 5.4 °C 0 °C 1013.4 hPa Calm   1.6 km/h 68 % 0 mm
17:57 5.2 °C -0.2 °C 1013.4 hPa Calm   1.9 km/h 68 % 0 mm
18:07 5 °C -0.2 °C 1013.8 hPa Calm     69 % 0 mm
18:17 4.7 °C -0.3 °C 1013.4 hPa Calm     70 % 0 mm
18:22 4.6 °C -0.4 °C 1013.4 hPa Calm     70 % 0 mm
18:27 4.4 °C -0.6 °C 1013.4 hPa Calm     70 % 0 mm
18:32 4.3 °C -0.4 °C 1013.4 hPa Calm     71 % 0 mm
18:37 4.2 °C -0.6 °C 1013.4 hPa Calm     71 % 0 mm
18:42 4.1 °C -0.5 °C 1013.4 hPa Calm     72 % 0 mm
18:47 4 °C -0.4 °C 1013.8 hPa Calm     73 % 0 mm
18:53 3.9 °C -0.5 °C 1013.8 hPa Calm     73 % 0 mm
18:55 3.8 °C -0.4 °C 1013.8 hPa Calm     74 % 0 mm
19:01 3.8 °C -0.2 °C 1014.1 hPa Calm     75 % 0 mm
19:06 3.8 °C -0.1 °C 1013.8 hPa Calm     76 % 0 mm
19:11 3.7 °C -0.3 °C 1013.4 hPa Calm     75 % 0 mm
19:16 3.7 °C -0.3 °C 1013.4 hPa Calm     75 % 0 mm
19:21 3.7 °C -0.1 °C 1013.4 hPa Calm     76 % 0 mm
19:27 3.7 °C -0.2 °C 1013.8 hPa Calm   1.9 km/h 76 % 0 mm
19:32 3.7 °C -0.2 °C 1013.8 hPa Calm     76 % 0 mm
19:37 3.7 °C -0.2 °C 1013.8 hPa Calm     76 % 0 mm
19:42 3.7 °C -0.2 °C 1013.8 hPa Calm     76 % 0 mm
19:47 3.7 °C -0.1 °C 1013.4 hPa Calm     76 % 0 mm
19:52 3.7 °C -0.1 °C 1013.4 hPa Calm     76 % 0 mm
19:57 3.7 °C -0.1 °C 1013.8 hPa Calm   1.9 km/h 76 % 0 mm
20:02 3.8 °C 0.1 °C 1013.8 hPa Calm     77 % 0 mm
20:07 3.8 °C 0.2 °C 1013.8 hPa WSW 2.4 km/h 5.6 km/h 77 % 0 mm
20:12 3.9 °C 0.3 °C 1013.8 hPa SW 3.5 km/h 5.6 km/h 77 % 0 mm
20:17 4 °C 0.3 °C 1013.8 hPa SW 1.1 km/h 5.6 km/h 77 % 0 mm
20:22 4.1 °C 0.4 °C 1014.1 hPa SW 1.6 km/h 5.6 km/h 77 % 0 mm
20:27 4.2 °C 0.5 °C 1014.1 hPa SW 1.3 km/h 3.7 km/h 77 % 0 mm
20:32 4.3 °C 0.6 °C 1014.1 hPa Calm     77 % 0 mm
20:37 4.4 °C 0.7 °C 1014.1 hPa SW 0.2 km/h 3.7 km/h 77 % 0 mm
20:42 4.5 °C 0.8 °C 1014.1 hPa Calm   1.9 km/h 77 % 0 mm
20:47 4.6 °C 0.9 °C 1014.1 hPa Calm     77 % 0 mm
20:52 4.7 °C 0.8 °C 1014.1 hPa Calm   1.6 km/h 76 % 0 mm
20:57 4.8 °C 0.9 °C 1014.1 hPa Calm     76 % 0 mm
21:02 5 °C 0.9 °C 1013.4 hPa SW 1.6 km/h 3.7 km/h 75 % 0 mm
21:07 5.1 °C 1 °C 1013.4 hPa Calm     75 % 0 mm
21:12 5.2 °C 1.1 °C 1013.8 hPa SSW 1.9 km/h 5.6 km/h 75 % 0 mm
21:17 5.2 °C 1.2 °C 1013.8 hPa Calm   1.9 km/h 75 % 0 mm
21:22 5.3 °C 1.2 °C 1013.8 hPa SSW 0.2 km/h 3.7 km/h 75 % 0 mm
21:28 5.3 °C 1.1 °C 1014.1 hPa SW 2.3 km/h 5.6 km/h 74 % 0 mm
21:33 5.4 °C 1.2 °C 1014.1 hPa Calm   3.7 km/h 74 % 0 mm
21:48 5.6 °C 1.2 °C 1014.1 hPa SW 0.2 km/h 3.7 km/h 73 % 0 mm
21:53 5.7 °C 1.2 °C 1014.1 hPa Calm     73 % 0 mm
21:58 5.7 °C 1.2 °C 1014.1 hPa Calm     73 % 0 mm
22:03 5.7 °C 1.3 °C 1014.1 hPa Calm     73 % 0 mm
22:08 5.7 °C 1.3 °C 1014.1 hPa Calm     73 % 0 mm
22:13 5.7 °C 1.3 °C 1014.1 hPa Calm     73 % 0 mm
22:18 5.7 °C 1.3 °C 1013.8 hPa Calm   1.9 km/h 73 % 0 mm
22:23 5.7 °C 1.3 °C 1013.8 hPa Calm     73 % 0 mm
22:28 5.7 °C 1.2 °C 1013.8 hPa Calm     73 % 0 mm
22:33 5.7 °C 1.4 °C 1013.8 hPa Calm     74 % 0 mm
22:38 5.6 °C 1.3 °C 1013.4 hPa Calm     74 % 0 mm
22:43 5.6 °C 1.3 °C 1013.4 hPa Calm     74 % 0 mm
22:48 5.6 °C 1.3 °C 1013.8 hPa Calm     74 % 0 mm
22:53 5.6 °C 1.3 °C 1013.8 hPa Calm     74 % 0 mm
23:08 5.6 °C 1.3 °C 1013.4 hPa Calm     74 % 0 mm
23:13 5.6 °C 1.3 °C 1013.4 hPa Calm     74 % 0 mm
23:18 5.6 °C 1.4 °C 1013.4 hPa Calm     75 % 0 mm
23:23 5.6 °C 1.5 °C 1013.4 hPa Calm     75 % 0 mm
23:28 5.6 °C 1.7 °C 1013.4 hPa Calm     76 % 0 mm
23:34 5.6 °C 1.9 °C 1013.8 hPa Calm     77 % 0 mm
23:39 5.6 °C 1.9 °C 1013.8 hPa Calm     77 % 0 mm
23:44 5.6 °C 2.1 °C 1013.8 hPa Calm     78 % 0 mm
23:49 5.6 °C 2 °C 1013.8 hPa Calm     78 % 0 mm
23:54 5.5 °C 2.2 °C 1013.8 hPa Calm     79 % 0 mm
23:59 5.5 °C 2.3 °C 1013.8 hPa Calm     80 % 0 mm
Crab Meadow Weather
Compliments of Weather Underground - 3 mb

Script developed by  Jim McMurry - jmcmurry@mwt.net Adapted for the template by  Wim van der Kuil - Leuven-Template.eu

Heat Index: The heat index combines air temperature and dew point in an attempt to determine the human-perceived equivalent temperature - how hot it feels. The human body normally cools itself by sweating, which evaporates and carries heat away from the body. However, when the relative humidity is high the evaporation rate is reduced, so heat is removed from the body at a lower rate causing it to retain more heat than it would in dry air.